Weather in Shitkino

Russia / Irkutsk Oblast     56°22′19″N   98°21′08″E
temp.,
°C
wind,
m/s
gust,
m/s
humid.,
%
clouds,
%
prec.,
mm/h
press.,
hPa
HPBL,
m
26 february, fri
fri2623:00−15w2696100 0.2 1018173
02:00−16wnw4109098 0.2 1022311
05:00−22w239450 0.0 102527
08:00−22ssw239575 0.0 102750
11:00−17wsw4107990 0.0 10281094
14:00−15wnw596595 0.0 10261146
17:00−16w3587100 0.1 1025882
20:00−19w41177100 0.5 10291037
27 february, sat
sat2723:00−22wsw3893100 0.1 1032299
02:00−23wsw31189100 0.1 1033609
05:00−23sw3109697 0.1 1034570
08:00−22wsw3109698 0.1 1034889
11:00−21w61186100 0.1 10351442
14:00−20w5984100 0.2 10351455
17:00−20w41084100 0.1 10351420
20:00−22w2296100 0.1 103638
28 february, sun
sun2823:00−22sw2598100 0.1 1036173
02:00−23sw2498100 0.1 1037163
05:00−23wsw3897100 0.1 1038409
08:00−23wsw3797100 0.2 1039390
11:00−22wsw4789100 0.1 1040814
14:00−20w4885100 0.1 10391155
17:00−18w4784100 0.1 10381149
20:00−21wsw1296100 0.1 103921
1 march, mon
mon123:00−21sw2299100 0.1 103939
02:00−21sw1299100 0.2 103820
05:00−22sw1199100 0.1 103720
08:00−25s1110098 0.1 103720
11:00−20sse129477 0.0 1034208
14:00−15se128184 0.0 1031534
17:00−14e248198 0.0 1028632
20:00−18e379499 0.0 1026174
2 march, tue
tue223:00−18e31092100 0.0 1024267
02:00−18e3996100 0.1 1021272
05:00−18e3896100 0.2 1020309
08:00−18ese4996100 0.5 1019377
11:00−16ese4894100 0.4 1017372
14:00−13e4794100 1.1 1015404
17:00−12e3694100 0.8 1013388
20:00−13e3795100 1.5 1013310